When you browse on this site, cookies collect data to enhance your experience and personalize the content and advertising you see.
Visit our Privacy Policy to learn more. By continuing to use the site, you agree to this use of cookies and data.
EN

Hourly Weather Pitea

Today, 8 August, Saturday

Time Temperature Precipitation Wind Pressure Humidity
00:00 +19°C° 0 mm 1 mps 765 mmHg 88%
01:00 +19°C° 0 mm 1 mps 765 mmHg 89%
02:00 +19°C° 0 mm 1 mps 765 mmHg 88%
03:00 +18°C° 0 mm 1 mps 765 mmHg 88%
04:00 +18°C° 0 mm 1 mps 765 mmHg 88%
05:00 +19°C° 0 mm 2 mps 765 mmHg 83%
06:00 +20°C° 0 mm 2 mps 765 mmHg 78%
07:00 +21°C° 0 mm 2 mps 765 mmHg 73%
08:00 +21°C° 0 mm 2 mps 764 mmHg 72%
09:00 +22°C° 0 mm 3 mps 764 mmHg 71%
10:00 +22°C° 0 mm 3 mps 764 mmHg 70%
11:00 +24°C° 0 mm 3 mps 763 mmHg 67%
12:00 +25°C° 0 mm 4 mps 763 mmHg 64%
13:00 +25°C° 0 mm 4 mps 762 mmHg 62%
14:00 +25°C° 0 mm 4 mps 762 mmHg 62%
15:00 +25°C° 0 mm 4 mps 762 mmHg 62%
16:00 +25°C° 0 mm 5 mps 761 mmHg 63%
17:00 +23°C° 0 mm 4 mps 761 mmHg 67%
18:00 +22°C° 0 mm 4 mps 760 mmHg 71%
19:00 +22°C° 0 mm 4 mps 760 mmHg 75%
20:00 +21°C° 0 mm 4 mps 760 mmHg 79%
21:00 +20°C° 0 mm 4 mps 759 mmHg 83%
22:00 +19°C° 0 mm 4 mps 759 mmHg 87%
23:00 +19°C° 0.1 mm 3 mps 759 mmHg 87%

Tomorrow, 9 August, Sunday

Time Temperature Precipitation Wind Pressure Humidity
00:00 +19°C° 0.1 mm 3 mps 759 mmHg 87%
01:00 +18°C° 0.1 mm 3 mps 759 mmHg 87%
02:00 +18°C° 1 mm 3 mps 759 mmHg 87%
03:00 +17°C° 1 mm 4 mps 759 mmHg 87%
04:00 +15°C° 1 mm 5 mps 759 mmHg 87%
05:00 +16°C° 0.1 mm 5 mps 760 mmHg 78%
06:00 +17°C° 0.1 mm 6 mps 760 mmHg 70%
07:00 +19°C° 0.1 mm 6 mps 760 mmHg 61%
08:00 +20°C° 0 mm 6 mps 761 mmHg 56%
09:00 +21°C° 0 mm 5 mps 761 mmHg 51%
10:00 +22°C° 0 mm 5 mps 762 mmHg 46%
11:00 +22°C° 0 mm 5 mps 762 mmHg 45%
12:00 +22°C° 0 mm 5 mps 762 mmHg 44%
13:00 +22°C° 0 mm 4 mps 763 mmHg 44%
14:00 +22°C° 0 mm 4 mps 763 mmHg 44%
15:00 +22°C° 0 mm 4 mps 763 mmHg 45%
16:00 +22°C° 0 mm 4 mps 763 mmHg 45%
17:00 +20°C° 0 mm 4 mps 764 mmHg 51%
18:00 +19°C° 0 mm 3 mps 764 mmHg 57%
19:00 +18°C° 0 mm 3 mps 764 mmHg 63%
20:00 +17°C° 0 mm 2 mps 764 mmHg 67%
21:00 +15°C° 0 mm 2 mps 765 mmHg 71%
22:00 +14°C° 0 mm 2 mps 765 mmHg 76%
23:00 +14°C° 0 mm 2 mps 766 mmHg 77%

Day after tomorrow, 10 August, Monday

Time Temperature Precipitation Wind Pressure Humidity
00:00 +13°C° 0 mm 2 mps 766 mmHg 78%
01:00 +13°C° 0 mm 2 mps 766 mmHg 79%
02:00 +12°C° 0 mm 2 mps 766 mmHg 80%
03:00 +12°C° 0 mm 2 mps 767 mmHg 81%
04:00 +10°C° 0 mm 3 mps 767 mmHg 82%
05:00 +12°C° 0 mm 3 mps 767 mmHg 75%
06:00 +13°C° 0 mm 3 mps 767 mmHg 69%
07:00 +16°C° 0 mm 3 mps 767 mmHg 63%
08:00 +17°C° 0 mm 3 mps 767 mmHg 58%
09:00 +18°C° 0 mm 3 mps 767 mmHg 54%
10:00 +19°C° 0 mm 3 mps 767 mmHg 49%
11:00 +20°C° 0 mm 3 mps 767 mmHg 48%
12:00 +20°C° 0 mm 2 mps 768 mmHg 47%
13:00 +20°C° 0 mm 2 mps 768 mmHg 46%
14:00 +20°C° 0 mm 2 mps 768 mmHg 47%
15:00 +19°C° 0 mm 2 mps 768 mmHg 49%
16:00 +19°C° 0 mm 2 mps 768 mmHg 50%
17:00 +18°C° 0 mm 2 mps 768 mmHg 54%
18:00 +17°C° 0 mm 2 mps 768 mmHg 59%
19:00 +16°C° 0 mm 2 mps 768 mmHg 63%
20:00 +15°C° 0 mm 2 mps 769 mmHg 67%
21:00 +14°C° 0 mm 2 mps 769 mmHg 70%
22:00 +12°C° 0 mm 2 mps 770 mmHg 74%
23:00 +12°C° 0 mm 2 mps 770 mmHg 75%

11 August, Tuesday

Time Temperature Precipitation Wind Pressure Humidity
00:00 +12°C° 0 mm 2 mps 770 mmHg 77%
01:00 +10°C° 0 mm 2 mps 770 mmHg 78%
02:00 +10°C° 0 mm 3 mps 770 mmHg 76%
03:00 +11°C° 0 mm 3 mps 771 mmHg 74%
04:00 +11°C° 0 mm 3 mps 771 mmHg 72%
05:00 +12°C° 0 mm 3 mps 771 mmHg 66%
06:00 +14°C° 0 mm 2 mps 771 mmHg 61%
07:00 +15°C° 0 mm 2 mps 771 mmHg 55%
08:00 +16°C° 0 mm 2 mps 771 mmHg 52%
09:00 +17°C° 0 mm 2 mps 770 mmHg 48%
10:00 +17°C° 0 mm 2 mps 770 mmHg 44%
11:00 +18°C° 0 mm 2 mps 770 mmHg 43%
12:00 +19°C° 0 mm 2 mps 770 mmHg 42%
13:00 +21°C° 0 mm 1 mps 770 mmHg 41%
14:00 +19°C° 0 mm 2 mps 770 mmHg 43%
15:00 +19°C° 0 mm 2 mps 769 mmHg 44%
16:00 +19°C° 0 mm 2 mps 769 mmHg 46%
17:00 +17°C° 0 mm 2 mps 769 mmHg 51%
18:00 +16°C° 0 mm 2 mps 769 mmHg 57%
19:00 +14°C° 0 mm 3 mps 769 mmHg 63%
20:00 +13°C° 0 mm 3 mps 769 mmHg 63%
21:00 +13°C° 0 mm 3 mps 769 mmHg 64%
22:00 +12°C° 0 mm 3 mps 769 mmHg 65%
23:00 +13°C° 0 mm 3 mps 769 mmHg 64%

12 August, Wednesday

Time Temperature Precipitation Wind Pressure Humidity
00:00 +13°C° 0 mm 3 mps 769 mmHg 63%
01:00 +13°C° 0 mm 3 mps 769 mmHg 62%
02:00 +13°C° 0 mm 3 mps 768 mmHg 63%
03:00 +13°C° 0 mm 3 mps 768 mmHg 65%
04:00 +13°C° 0 mm 4 mps 768 mmHg 66%
05:00 +13°C° 0 mm 4 mps 768 mmHg 68%
06:00 +13°C° 0 mm 4 mps 767 mmHg 69%
07:00 +13°C° 0 mm 4 mps 767 mmHg 71%
08:00 +15°C° 0 mm 4 mps 767 mmHg 67%
09:00 +18°C° 0 mm 4 mps 766 mmHg 63%
10:00 +19°C° 0 mm 4 mps 766 mmHg 59%
11:00 +20°C° 0 mm 4 mps 765 mmHg 56%
12:00 +22°C° 0 mm 4 mps 765 mmHg 53%
13:00 +23°C° 0 mm 5 mps 764 mmHg 51%
14:00 +23°C° 0 mm 5 mps 764 mmHg 51%
15:00 +23°C° 0 mm 4 mps 764 mmHg 52%
16:00 +23°C° 0 mm 4 mps 763 mmHg 52%
17:00 +22°C° 0 mm 4 mps 763 mmHg 58%
18:00 +21°C° 0 mm 4 mps 763 mmHg 64%
19:00 +19°C° 0 mm 3 mps 762 mmHg 70%
20:00 +18°C° 0 mm 3 mps 762 mmHg 75%
21:00 +17°C° 0 mm 3 mps 762 mmHg 79%
22:00 +16°C° 0 mm 2 mps 762 mmHg 83%
23:00 +15°C° 0 mm 2 mps 761 mmHg 86%

13 August, Thursday

Time Temperature Precipitation Wind Pressure Humidity
00:00 +15°C° 0 mm 2 mps 761 mmHg 88%
01:00 +14°C° 0 mm 2 mps 761 mmHg 90%
02:00 +14°C° 0 mm 2 mps 761 mmHg 92%
03:00 +14°C° 0 mm 2 mps 761 mmHg 94%
04:00 +12°C° 0 mm 3 mps 761 mmHg 95%
05:00 +14°C° 0 mm 3 mps 761 mmHg 90%
06:00 +16°C° 0 mm 3 mps 760 mmHg 85%
07:00 +17°C° 0 mm 3 mps 760 mmHg 79%
08:00 +18°C° 0 mm 3 mps 760 mmHg 76%
09:00 +18°C° 0 mm 3 mps 760 mmHg 73%
10:00 +19°C° 0 mm 3 mps 760 mmHg 70%
11:00 +19°C° 0 mm 3 mps 760 mmHg 69%
12:00 +19°C° 0 mm 3 mps 760 mmHg 67%
13:00 +19°C° 0 mm 3 mps 759 mmHg 65%
14:00 +19°C° 0 mm 3 mps 759 mmHg 67%
15:00 +18°C° 0 mm 3 mps 759 mmHg 68%
16:00 +17°C° 0 mm 2 mps 758 mmHg 70%
17:00 +17°C° 0 mm 2 mps 758 mmHg 73%
18:00 +16°C° 0 mm 2 mps 758 mmHg 75%
19:00 +15°C° 0 mm 2 mps 758 mmHg 78%
20:00 +15°C° 0 mm 2 mps 758 mmHg 79%
21:00 +15°C° 0 mm 2 mps 758 mmHg 80%
22:00 +14°C° 0 mm 2 mps 757 mmHg 81%
23:00 +14°C° 0 mm 2 mps 757 mmHg 82%
Show more